#timestamp,LO_Frequency,Hit 
1497891615.1,286047003.8,N
1497891635.9,286047006.0,N
1497891655.7,286047005.3,N
1497891675.5,286047002.9,N
1497891695.4,286047006.0,N
1497891715.2,286047003.3,N
1497891735.0,286047003.3,N
1497891735.9,286047003.3,N
1497891755.8,286047006.0,N
1497891775.6,286047003.1,N
1497891795.4,286047005.4,N
1497891815.2,286047005.8,N
1497891835.1,286047005.7,N
1497891836.0,286047005.7,N
1497891855.8,286047005.3,N
1497891875.6,286047005.5,N
1497891895.5,286047005.1,N
1497891915.3,286047005.7,N
1497891935.1,286047007.5,N
1497891955.9,286047004.5,N
1497891975.7,286047007.5,N
1497891995.5,286047006.9,N
1497892015.3,286047006.7,N
1497892035.2,286047007.1,N
1497892055.0,286047007.2,N
1497892055.9,286047007.2,N
1497892075.7,286047006.6,N
1497892095.6,286047007.5,N
1497892115.4,286047004.5,N
1497892135.2,286047004.5,N
1497892155.1,286047004.5,N
1497892156.0,286047004.5,N
1497892175.8,286047007.0,N
1497892195.6,286047007.4,N
1497892215.5,286047006.3,N
1497892235.3,286047006.9,N
1497892255.1,286047007.1,N
1497892275.8,286047007.4,N
1497892295.7,286047006.9,N
1497892315.5,286047006.8,N
1497892335.3,286047006.9,N
1497892355.2,286047006.6,N
1497892375.9,286047007.6,N
1497892395.7,286047007.3,N
1497892415.6,286047006.3,N
1497892435.4,286047006.9,N
1497892455.2,286047009.1,N
1497892475.1,286047008.5,N
1497892476.0,286047008.5,N
1497892495.8,286047010.7,N
1497892515.6,286047007.9,N
1497892535.5,286047007.9,N
1497892555.3,286047007.9,N
1497892575.1,286047008.9,N
1497892595.8,286047008.5,N
1497892615.7,286047006.3,N
1497892635.5,286047009.0,N
1497892655.3,286047008.6,N
1497892675.2,286047009.1,N
1497892695.9,286047009.1,N
1497892715.7,286047008.5,N
1497892735.6,286047008.8,N
1497892755.4,286047008.9,N
1497892775.2,286047008.9,N
1497892795.1,286047008.3,N
1497892796.0,286047008.3,N
1497892815.8,286047008.6,N
1497892835.6,286047006.7,N
1497892855.4,286047008.3,N
1497892875.3,286047008.3,N
1497892895.1,286047010.6,N
1497892915.8,286047010.3,N
1497892935.7,286047010.6,N
1497892955.5,286047010.2,N
1497892975.3,286047010.0,N
1497892995.2,286047010.0,N
1497893015.9,286047010.6,N
1497893035.7,286047012.3,N
1497893055.6,286047009.8,N
1497893075.4,286047012.0,N
1497893095.2,286047012.1,N
1497893115.0,286047009.3,N
1497893116.0,286047009.3,N
1497893135.8,286047011.2,N
1497893155.6,286047011.4,N
1497893175.4,286047011.7,N
1497893195.3,286047009.5,N
1497893215.1,286047011.9,N
1497893235.8,286047012.2,N
1497893255.7,286047011.6,N
1497893275.5,286047011.5,N
1497893295.3,286047011.0,N
1497893315.2,286047011.4,N
1497893335.9,286047010.9,N
1497893355.7,286047014.0,N
1497893375.6,286047013.9,N
1497893395.4,286047011.7,N
1497893415.2,286047011.3,N
1497893435.0,286047013.1,N
1497893435.9,286047013.1,N
1497893455.8,286047012.6,N
1497893475.6,286047015.0,N
1497893495.4,286047014.4,N
1497893515.3,286047015.6,N
1497893535.1,286047015.5,N
1497893536.0,286047015.5,N
1497893555.8,286047015.3,N
1497893575.7,286047015.5,N
1497893595.5,286047013.2,N
1497893615.3,286047012.6,N
1497893635.2,286047015.5,N
1497893655.9,286047014.1,N
1497893675.7,286047015.0,N
1497893695.5,286047015.3,N
1497893715.4,286047015.4,N
1497893735.2,286047014.8,N
1497893755.0,286047014.1,N
1497893755.9,286047014.1,N
1497893775.8,286047015.2,N
1497893795.6,286047016.9,N
1497893815.4,286047016.4,N
1497893835.3,286047016.4,N
1497893855.1,286047016.9,N
1497893856.0,286047016.9,N
1497893875.8,286047016.5,N
1497893895.7,286047016.4,N
1497893915.5,286047017.0,N
1497893935.3,286047016.6,N
1497893955.2,286047015.9,N
1497893975.9,286047018.7,N
1497893995.7,286047018.8,N
1497894015.5,286047018.3,N
1497894035.4,286047016.1,N
1497894055.2,286047016.2,N
1497894075.0,286047016.1,N
1497894075.9,286047016.1,N
1497894095.8,286047017.9,N
1497894115.6,286047020.3,N
1497894135.4,286047017.4,N
1497894155.3,286047019.6,N
1497894175.1,286047020.1,N
1497894176.0,286047020.1,N
1497894195.8,286047019.9,N
1497894215.7,286047020.4,N
1497894235.5,286047019.9,N
1497894255.3,286047017.3,N
1497894275.2,286047017.7,N
1497894295.9,286047017.4,N
1497894315.7,286047017.5,N
1497894335.5,286047017.3,N
1497894355.4,286047020.0,N
1497894375.2,286047019.5,N
1497894395.0,286047019.1,N
1497894395.9,286047019.1,N
1497894415.8,286047019.0,N
1497894435.6,286047019.2,N
1497894455.4,286047019.1,N
1497894475.3,286047021.6,N
1497894495.1,286047021.7,N
1497894496.0,286047021.7,N
1497894515.8,286047019.4,N
1497894535.7,286047021.5,N
1497894555.5,286047022.0,N
1497894575.3,286047021.6,N
1497894595.1,286047021.1,N
1497894615.9,286047020.8,N
1497894635.7,286047020.7,N
1497894655.5,286047022.0,N
1497894675.4,286047021.4,N
1497894695.2,286047021.5,N
1497894715.0,286047021.8,N
1497894715.9,286047021.8,N
1497894735.8,286047020.8,N
1497894755.6,286047020.8,N
1497894775.4,286047023.6,N
1497894795.3,286047022.0,N
1497894815.1,286047021.8,N
1497894816.0,286047021.8,N
1497894835.8,286047019.1,N
1497894855.7,286047021.4,N
1497894875.5,286047023.2,N
1497894895.3,286047020.6,N
1497894915.1,286047022.7,N
1497894935.9,286047022.7,N
1497894955.7,286047023.6,N
1497894975.5,286047022.1,N
1497894995.4,286047022.6,N
1497895015.2,286047024.7,N
1497895035.0,286047022.7,N
1497895035.9,286047022.7,N
1497895055.8,286047024.6,N
1497895075.6,286047022.6,N
1497895095.4,286047025.2,N
1497895115.3,286047024.3,N
1497895135.1,286047026.3,N
1497895136.0,286047026.3,N
1497895155.8,286047024.9,N
1497895175.6,286047024.4,N
1497895195.5,286047023.7,N
